[[{"header":{"parameterUnit":"m.s-1","parameterCategory":1,"la1":30.2991,"la2":30.254,"lo1":-89.0895,"lo2":-89.0444,"dy":0.0017,"dx":0.0017,"nx":28,"ny":28,"refTime":"2024-06-18T03:00:00:Z","depth":0,"parameterNumber":2,"parameterNumberName":"U-component_of_WINDS"},"data":[0,0,0,0,0,0,0,0,0,0,0,0,0,0,0,0,0,0,0,0,0,0,0,0,0,0,0,0,0,0,0,0,0,0,0,0,0,0,0,0,0,0,0,0,0,0,0,0,0,0,0,0,0,0,0,0,0,0,-8.7546,-8.7546,0,-8.7563,-8.7564,-8.7564,-8.7291,-8.7284,-8.7276,-8.7269,-8.7295,-8.7302,-8.7309,0,0,0,0,0,0,0,0,0,0,0,0,0,-8.7281,-8.7287,-8.7546,-8.7546,-8.7546,-8.7563,-8.7564,-8.7564,-8.7293,-8.7283,-8.7274,-8.7266,-8.7292,-8.7301,-8.731,0,0,0,0,0,0,0,0,0,0,0,0,0,-8.7357,-8.7289,-8.7546,-8.7413,-8.7401,-8.7563,-8.7564,-8.7564,-8.7294,-8.7283,-8.7272,-8.7262,-8.7289,-8.73,-8.7311,-8.7604,0,0,-8.7346,-8.7351,0,0,0,0,0,0,0,0,-8.7353,-8.7367,-8.7432,-8.7422,-8.7409,-8.7413,-8.7479,-8.7578,-8.7297,-8.7335,-8.7269,-8.7256,-8.7344,-8.735,-8.7378,-8.7605,-8.7606,-8.7347,-8.7354,-8.7359,-8.7362,0,0,0,0,0,0,0,-8.7348,-8.7365,-8.7553,-8.7434,-8.742,-8.7353,-8.7352,-8.7496,-8.7402,-8.7331,-8.7311,-8.7317,-8.7335,-8.7367,-8.7376,-8.7606,-8.7347,-8.7357,-8.7364,-8.7368,-8.807,-8.8082,0,0,0,0,0,0,-8.7361,-8.7363,-8.7552,-8.7553,-8.7353,-8.7367,-8.7365,-8.7424,-8.7399,-8.7385,-8.7326,-8.7304,-8.7353,-8.7363,-8.7376,-8.7714,-8.7359,-8.7369,-8.7376,-8.8059,-8.8073,-8.8086,0,0,0,0,0,0,-8.7356,-8.738,-8.7552,-8.7453,-8.7469,-8.7383,-8.7451,-8.743,-8.7461,-8.7395,-8.7378,-8.7376,-8.7345,-8.736,-8.7548,-8.7711,-8.7374,-8.7385,-8.8045,-8.8063,-8.808,-8.8394,0,0,0,0,0,0,-8.735,-8.738,-8.749,-8.7457,-8.7476,-8.7723,-8.7461,-8.7438,-8.7481,-8.7452,-8.7438,-8.7425,-8.7337,-8.7532,-8.7559,-8.772,-8.7394,-8.803,-8.8053,-8.8074,-8.8369,-8.8421,-8.8465,0,0,0,0,0,-8.7341,-8.758,-8.7497,-8.7521,-8.7611,-8.7733,-8.7744,-8.7636,-8.7495,-8.7605,-8.7562,-8.7425,-8.7689,-8.7554,-8.7582,-8.7749,-8.8019,-8.8046,-8.8072,-8.8347,-8.841,-8.8464,0,0,0,0,0,0,-8.7638,-8.7574,-8.748,-8.7716,-8.7732,-8.7687,-8.7822,-8.7707,-8.7765,-8.7736,-8.7602,-8.7601,-8.781,-8.7798,-8.7649,-8.8029,-8.7829,-8.7863,-8.8029,-8.8088,-8.8135,-8.8134,-8.7403,0,0,0,0,0,-8.773,-8.7833,-8.7772,-8.7986,-8.7998,-8.791,-8.7959,-8.7874,-8.7886,-8.7892,-8.7862,-8.7881,-8.7967,-8.8027,-8.8103,-8.8366,-8.8358,-8.8495,-8.8543,-8.8582,-8.8613,-8.8747,-8.8807,-8.8173,-8.8173,-8.8173,0,0,-8.7923,-8.7901,-8.7975,-8.8045,-8.8047,-8.8157,-8.7917,-8.8045,-8.8125,-8.7912,-8.8085,-8.8065,-8.8077,-8.8302,-8.84,-8.8299,-8.8786,-8.8616,-8.8648,-8.8657,-8.8781,-8.8841,-8.8895,-8.8191,-8.8188,-8.8185,0,0,-8.833,-8.8325,-8.8499,-8.8506,-8.851,-8.8449,-8.8492,-8.8464,-8.8441,-8.8612,-8.8454,-8.8548,-8.8701,-8.8714,-8.8741,-8.915,-8.9026,-8.9179,-8.9429,-8.9562,-8.9612,-8.9656,-8.9799,-8.9853,-8.9209,-8.921,-8.9211,0,-8.857,-8.8727,-8.8605,-8.8742,-8.8776,-8.8585,-8.8761,-8.8774,-8.8806,-8.8835,-8.872,-8.8904,-8.8899,-8.9123,-8.9222,-8.9251,-8.9295,-8.9179,-8.9614,-8.9657,-8.9696,-8.9831,-8.9886,-8.9229,-8.9226,-8.9225,-8.9223,0,-8.902,-8.9132,-8.9274,-8.9304,-8.9355,-8.9512,-8.9413,-8.948,-8.9391,-8.9342,-8.9518,-8.9504,-8.9573,-8.962,-8.9536,-8.9833,-8.9769,-8.9637,-8.9433,-8.9777,-8.9901,-8.9953,-8.9255,-8.9248,-8.9243,-8.9238,0,0,-8.9616,-8.9574,-8.9628,-8.9638,-8.9628,-8.9712,-8.986,-8.9923,-8.9982,-9.001,-9.0129,-9.0261,-9.0137,-9.0168,-9.0084,-9.0201,-9.0522,-9.0053,-9.0051,-9.0139,-9.0845,-9.0944,-9.1006,-9.044,-9.0449,-9.0457,-9.0844,0,-9.0009,-9.0255,-9.0148,-9.0406,-9.0506,-9.0325,-9.0453,-9.0461,-9.042,-9.05,-9.0454,-9.0548,-9.0379,-9.0396,-9.0504,-9.0461,-9.0662,-9.0431,-9.055,-9.0556,-9.0551,-9.1071,-9.1176,-9.1542,-9.0892,-9.09,-9.0906,0,-9.0501,-9.0544,-9.0812,-9.078,-9.0818,-9.0935,-9.0982,-9.1061,-9.1067,-9.1028,-9.1061,-9.0949,-9.1091,-9.089,-9.1084,-9.0929,-9.0971,-9.0957,-9.0969,-9.0975,-9.0751,-9.109,-9.1656,-9.171,-9.0982,-9.0976,-9.0971,0,-9.0905,-9.1031,-9.1206,-9.1221,-9.1189,-9.1275,-9.1266,-9.126,-9.1304,-9.1347,-9.1373,-9.1435,-9.1468,-9.1518,-9.1425,-9.1287,-9.1632,-9.1423,-9.1603,-9.1606,-9.1683,-9.1679,-9.2263,-9.1715,-9.1714,-9.1713,-9.1712,0,-9.1354,-9.1524,-9.1386,-9.1494,-9.1678,-9.1554,-9.1741,-9.1712,-9.1708,-9.1807,-9.1656,-9.1752,-9.1625,-9.171,-9.1639,-9.1809,-9.1826,-9.1798,-9.1777,-9.1811,-9.1814,-9.1836,-9.1807,-9.1727,-9.1724,-9.1721,-9.1719,0,-9.1837,-9.1752,-9.1929,-9.1883,-9.1876,-9.2014,-9.1974,-9.2072,-9.2019,-9.2146,-9.2169,-9.2086,-9.2177,-9.209,-9.2178,-9.213,-9.2357,-9.23,-9.2354,-9.2337,-9.2522,-9.2505,-9.3138,-9.3214,-9.262,-9.2626,-9.2631,0,-9.2128,-9.2254,-9.222,-9.2274,-9.2273,-9.2363,-9.2406,-9.2288,-9.2339,-9.2353,-9.2449,-9.2527,-9.2583,-9.2738,-9.2686,-9.2752,-9.2695,-9.2912,-9.2704,-9.2733,-9.2695,-9.2688,-9.2699,-9.2954,-9.2961,-9.2967,-9.2972,0,-9.2653,-9.2604,-9.267,-9.2722,-9.2776,-9.2812,-9.2836,-9.289,-9.2768,-9.2833,-9.2923,-9.2966,-9.3053,-9.3132,-9.3182,-9.3173,-9.3054,-9.3038,-9.3082,-9.3117,-9.3142,-9.3129,-9.2467,-9.3023,-9.3018,-9.3014,-9.3012,-9.301,-9.3047,-9.3148,-9.3139,-9.3218,-9.3223,-9.3248,-9.3336,-9.3292,-9.3364,-9.3423,-9.335,-9.346,-9.346,-9.3513,-9.3519,-9.3604,-9.3513,-9.3579,-9.3595,-9.3613,-9.3638,-9.313,-9.3614,-9.3612,-9.361,-9.3609,-9.3608,0,-9.3561,-9.3545,-9.3619,-9.3655,-9.3717,-9.3595,-9.3615,-9.3675,-9.3772,-9.3781,-9.3838,-9.394,-9.4016,-9.3969,-9.4034,-9.4111,-9.4057,-9.4131,-9.4124,-9.4123,-9.3718,-9.3671,-9.4173,-9.4173,-9.4173,-9.4173,-9.4173,-9.4173,-9.3836,-9.4,-9.395,-9.4115,-9.4098,-9.4202,-9.4224,-9.4246,-9.4252,-9.4372,-9.4432,-9.44,-9.4387,-9.4449,-9.4512,-9.4497,-9.4527,-9.4621,-9.4586,-9.4208,-9.4152,-9.4099,-9.4055,-9.4629,-9.463,-9.4984,-9.4987,-9.499]},{"header":{"parameterUnit":"m.s-1","parameterCategory":1,"la1":30.2991,"la2":30.254,"lo1":-89.0895,"lo2":-89.0444,"dy":0.0017,"dx":0.0017,"nx":28,"ny":28,"refTime":"2024-06-18T03:00:00:Z","depth":0,"parameterNumber":3,"parameterNumberName":"V-component_of_WINDS"},"data":[0,0,0,0,0,0,0,0,0,0,0,0,0,0,0,0,0,0,0,0,0,0,0,0,0,0,0,0,0,0,0,0,0,0,0,0,0,0,0,0,0,0,0,0,0,0,0,0,0,0,0,0,0,0,0,0,0,0,0.4533,0.4532,0,0.4489,0.4489,0.4488,0.436,0.4357,0.4355,0.4352,0.4312,0.4313,0.4315,0,0,0,0,0,0,0,0,0,0,0,0,0,0.4509,0.451,0.4533,0.4532,0.4532,0.449,0.4489,0.4488,0.4361,0.4357,0.4354,0.4351,0.4311,0.4313,0.4315,0,0,0,0,0,0,0,0,0,0,0,0,0,0.4498,0.4511,0.4533,0.4463,0.4456,0.449,0.4489,0.4488,0.4361,0.4357,0.4353,0.4349,0.4311,0.4313,0.4315,0.4414,0,0,0.4322,0.4323,0,0,0,0,0,0,0,0,0.4499,0.4499,0.4474,0.4468,0.446,0.4426,0.4466,0.4464,0.4363,0.4398,0.4352,0.4347,0.4353,0.4352,0.4353,0.4412,0.441,0.4322,0.4324,0.4325,0.4326,0,0,0,0,0,0,0,0.45,0.4501,0.4516,0.4474,0.4465,0.4435,0.4429,0.4465,0.44,0.4394,0.4385,0.4381,0.4349,0.4351,0.4351,0.441,0.4322,0.4324,0.4326,0.4327,0.455,0.4554,0,0,0,0,0,0,0.451,0.4502,0.4517,0.4514,0.447,0.4439,0.4432,0.4441,0.4399,0.4388,0.4385,0.4375,0.4349,0.4349,0.4349,0.4464,0.4325,0.4327,0.4328,0.4545,0.4551,0.4556,0,0,0,0,0,0,0.451,0.4513,0.4519,0.4506,0.4504,0.4444,0.4455,0.4443,0.4445,0.4392,0.438,0.4399,0.4346,0.4346,0.4399,0.4461,0.4328,0.433,0.454,0.4547,0.4553,0.4694,0,0,0,0,0,0,0.451,0.4514,0.455,0.4507,0.4505,0.4569,0.4459,0.4445,0.4449,0.4436,0.4402,0.4392,0.4343,0.4396,0.4401,0.4462,0.4332,0.4534,0.4543,0.4551,0.4683,0.4704,0.4723,0,0,0,0,0,0.451,0.4591,0.4552,0.4555,0.4549,0.4572,0.4571,0.4511,0.4454,0.4491,0.4457,0.4393,0.4453,0.4403,0.4407,0.4469,0.453,0.4541,0.455,0.4675,0.47,0.4722,0,0,0,0,0,0,0.4644,0.4585,0.454,0.461,0.4597,0.4551,0.4595,0.454,0.4544,0.4532,0.4458,0.4452,0.4516,0.4497,0.4443,0.4564,0.4481,0.4493,0.4574,0.4598,0.4617,0.4621,0.4334,0,0,0,0,0,0.4681,0.4704,0.4651,0.4718,0.4714,0.4656,0.4664,0.4619,0.4603,0.4597,0.4567,0.4555,0.457,0.4583,0.4594,0.4679,0.4671,0.4724,0.4744,0.476,0.4772,0.4818,0.4841,0.4589,0.4589,0.4589,0,0,0.476,0.473,0.4749,0.4745,0.4729,0.4756,0.4652,0.4684,0.4704,0.4602,0.465,0.4628,0.461,0.468,0.4709,0.4667,0.4839,0.4773,0.4787,0.4789,0.4831,0.4855,0.4876,0.4596,0.4595,0.4594,0,0,0.4916,0.4895,0.4949,0.4936,0.4913,0.4874,0.4887,0.4849,0.483,0.4877,0.4801,0.4824,0.4853,0.4843,0.4842,0.4996,0.4939,0.5002,0.5105,0.5151,0.5171,0.5188,0.5245,0.5266,0.5013,0.5014,0.5014,0,0.5017,0.5053,0.4985,0.5022,0.5024,0.4931,0.4986,0.4977,0.496,0.4964,0.4916,0.495,0.4931,0.4999,0.5036,0.5038,0.5052,0.5006,0.5173,0.519,0.5205,0.5259,0.528,0.5022,0.5021,0.502,0.5019,0,0.5179,0.5205,0.5252,0.5237,0.5243,0.529,0.523,0.5245,0.5199,0.5166,0.5216,0.519,0.5196,0.5208,0.5164,0.527,0.5244,0.5186,0.5102,0.5238,0.5287,0.5307,0.5033,0.503,0.5028,0.5026,0,0,0.542,0.5366,0.5385,0.5378,0.5346,0.5366,0.5409,0.5413,0.5428,0.542,0.5456,0.5482,0.5428,0.5427,0.5381,0.542,0.5547,0.5357,0.5355,0.5395,0.5665,0.5711,0.5736,0.5507,0.5511,0.5514,0.5667,0,0.557,0.5639,0.5579,0.5661,0.5686,0.5598,0.5635,0.5621,0.5591,0.5609,0.5576,0.5597,0.5522,0.5521,0.5556,0.5524,0.56,0.5512,0.5543,0.5545,0.5552,0.5761,0.581,0.5956,0.5686,0.5689,0.5691,0,0.5754,0.5753,0.5837,0.5801,0.5809,0.5844,0.5844,0.5861,0.5844,0.5819,0.5819,0.5762,0.5804,0.572,0.5777,0.5718,0.5727,0.5713,0.5717,0.572,0.5628,0.5772,0.6,0.6023,0.572,0.5718,0.5716,0,0.5925,0.5944,0.5997,0.5994,0.5952,0.598,0.5964,0.5942,0.5949,0.5949,0.5953,0.5958,0.5962,0.5969,0.5916,0.5859,0.5981,0.5892,0.5964,0.5966,0.5995,0.5995,0.6231,0.5997,0.5997,0.5997,0.5996,0,0.61,0.6155,0.6074,0.6107,0.6167,0.6098,0.616,0.6135,0.6117,0.6145,0.6069,0.6097,0.6024,0.6045,0.6004,0.6059,0.6061,0.6044,0.6033,0.6052,0.6055,0.6059,0.6048,0.6002,0.6001,0.6,0.5999,0,0.6301,0.6248,0.6301,0.6257,0.6248,0.6294,0.6258,0.6288,0.6252,0.6289,0.6293,0.6239,0.626,0.6207,0.622,0.6192,0.6273,0.6244,0.6279,0.6271,0.6347,0.6342,0.6596,0.6627,0.6372,0.6374,0.6376,0,0.6417,0.6458,0.6419,0.6432,0.642,0.6441,0.6448,0.6382,0.6392,0.6376,0.6408,0.6422,0.6431,0.6469,0.6432,0.6442,0.6414,0.6503,0.6416,0.6434,0.6419,0.6418,0.6423,0.6522,0.6525,0.6528,0.653,0,0.663,0.6602,0.6614,0.6617,0.6627,0.6627,0.6621,0.6636,0.6566,0.6581,0.6601,0.6608,0.6621,0.6638,0.664,0.6625,0.6567,0.6557,0.6575,0.6596,0.6616,0.6609,0.6331,0.6552,0.655,0.6548,0.6547,0.6546,0.6794,0.6827,0.6805,0.6821,0.6809,0.6806,0.6832,0.68,0.6815,0.6821,0.6781,0.681,0.6793,0.6789,0.6781,0.6804,0.6764,0.6789,0.6795,0.6803,0.6817,0.661,0.6804,0.6803,0.6802,0.6802,0.6801,0,0.7005,0.6987,0.7002,0.6996,0.701,0.6951,0.6943,0.6958,0.6985,0.6973,0.6982,0.7007,0.7022,0.6986,0.6996,0.7022,0.6996,0.7027,0.7026,0.7024,0.6851,0.6836,0.7048,0.7048,0.7048,0.7048,0.7048,0.7048,0.7117,0.717,0.714,0.7187,0.7168,0.7195,0.7196,0.7193,0.7183,0.7213,0.7226,0.7201,0.718,0.7188,0.7201,0.719,0.7199,0.724,0.722,0.706,0.7036,0.7013,0.6999,0.7242,0.7242,0.7391,0.7393,0.7394]}]]